Radiation Dose at Monitoring Post of Fukushima Daini Nuclear Power Station
Date,Time,MP-1(microSv/h),MP-2(microSv/h),MP-3(microSv/h),MP-4(microSv/h),MP-5(microSv/h),MP-6(microSv/h),MP-7(microSv/h),Wind Direction,Wind Velocity(m/s),Rain
2021/12/11,00:00,0.156,0.142,0.222,0.218,0.222,0.122,0.077,northwest,3.0,No
2021/12/11,00:10,0.155,0.142,0.223,0.217,0.224,0.121,0.078,northwest,3.2,No
2021/12/11,00:20,0.156,0.142,0.223,0.217,0.224,0.120,0.077,northwest,2.3,No
2021/12/11,00:30,0.156,0.142,0.222,0.218,0.223,0.121,0.077,west-northwest,2.5,No
2021/12/11,00:40,0.157,0.141,0.222,0.219,0.223,0.120,0.077,northwest,2.1,No
2021/12/11,00:50,0.156,0.143,0.223,0.218,0.223,0.121,0.077,west-northwest,1.7,No
2021/12/11,01:00,0.155,0.142,0.222,0.218,0.223,0.121,0.077,west-northwest,1.9,No
2021/12/11,01:10,0.155,0.141,0.222,0.218,0.223,0.122,0.077,west-northwest,2.1,No
2021/12/11,01:20,0.156,0.141,0.223,0.218,0.223,0.121,0.077,northwest,1.6,No
2021/12/11,01:30,0.156,0.142,0.222,0.217,0.223,0.120,0.077,north-northwest,1.3,No
2021/12/11,01:40,0.157,0.142,0.222,0.218,0.223,0.121,0.077,west-northwest,1.4,No
2021/12/11,01:50,0.156,0.141,0.222,0.218,0.222,0.121,0.078,west-southwest,0.6,No
2021/12/11,02:00,0.156,0.142,0.222,0.218,0.223,0.121,0.077,west-northwest,0.6,No
2021/12/11,02:10,0.156,0.142,0.222,0.218,0.223,0.121,0.077,west-northwest,1.0,No
2021/12/11,02:20,0.156,0.141,0.222,0.218,0.223,0.121,0.077,west-northwest,1.0,No
2021/12/11,02:30,0.156,0.142,0.222,0.217,0.222,0.121,0.077,-,CALM,No
2021/12/11,02:40,0.156,0.141,0.223,0.218,0.225,0.121,0.077,north,0.7,No
2021/12/11,02:50,0.156,0.142,0.222,0.218,0.224,0.121,0.077,-,CALM,No
2021/12/11,03:00,0.155,0.143,0.222,0.219,0.223,0.121,0.078,west-northwest,1.7,No
2021/12/11,03:10,0.154,0.141,0.224,0.218,0.224,0.122,0.077,-,CALM,No
2021/12/11,03:20,0.155,0.141,0.224,0.217,0.224,0.121,0.077,west-southwest,0.6,No
2021/12/11,03:30,0.157,0.142,0.221,0.218,0.223,0.121,0.078,-,CALM,No
2021/12/11,03:40,0.156,0.142,0.222,0.218,0.223,0.121,0.077,-,CALM,No
2021/12/11,03:50,0.155,0.141,0.222,0.218,0.224,0.121,0.078,west-southwest,0.8,No
2021/12/11,04:00,0.156,0.142,0.223,0.217,0.224,0.120,0.077,southwest,1.3,No
2021/12/11,04:10,0.156,0.142,0.222,0.218,0.223,0.121,0.077,south-southwest,1.2,No
2021/12/11,04:20,0.155,0.142,0.221,0.218,0.222,0.121,0.078,-,CALM,No
2021/12/11,04:30,0.156,0.143,0.222,0.218,0.223,0.121,0.077,south,0.8,No
2021/12/11,04:40,0.156,0.142,0.221,0.218,0.223,0.121,0.078,south-southeast,0.7,No
2021/12/11,04:50,0.156,0.141,0.223,0.218,0.224,0.122,0.078,south-southeast,0.8,No
2021/12/11,05:00,0.157,0.141,0.223,0.219,0.223,0.121,0.077,southeast,1.2,No
2021/12/11,05:10,0.156,0.142,0.222,0.218,0.224,0.121,0.078,south,1.5,No
2021/12/11,05:20,0.155,0.142,0.222,0.218,0.223,0.121,0.078,south-southeast,1.3,No
2021/12/11,05:30,0.156,0.142,0.222,0.218,0.223,0.121,0.078,southeast,1.6,No
2021/12/11,05:40,0.157,0.142,0.222,0.217,0.223,0.122,0.077,south-southeast,1.5,No
2021/12/11,05:50,0.156,0.142,0.222,0.218,0.223,0.121,0.078,south,1.5,No
2021/12/11,06:00,0.156,0.141,0.223,0.218,0.224,0.121,0.077,south,1.3,No
2021/12/11,06:10,0.156,0.141,0.222,0.217,0.223,0.122,0.078,south,1.7,No
2021/12/11,06:20,0.156,0.142,0.223,0.217,0.224,0.121,0.077,south-southeast,1.6,No
2021/12/11,06:30,0.157,0.142,0.222,0.219,0.223,0.121,0.077,south-southeast,1.7,No
2021/12/11,06:40,0.156,0.142,0.223,0.218,0.222,0.121,0.077,south-southeast,1.7,No
2021/12/11,06:50,0.156,0.142,0.224,0.219,0.223,0.121,0.079,south,1.3,No
2021/12/11,07:00,0.155,0.142,0.223,0.218,0.223,0.121,0.077,south-southeast,1.3,No
2021/12/11,07:10,0.156,0.143,0.223,0.218,0.224,0.121,0.077,south,1.6,No
2021/12/11,07:20,0.157,0.142,0.222,0.219,0.223,0.121,0.078,south-southeast,1.0,No
2021/12/11,07:30,0.156,0.142,0.223,0.218,0.223,0.121,0.078,south-southeast,1.0,No
2021/12/11,07:40,0.156,0.142,0.224,0.218,0.224,0.123,0.077,south-southeast,0.9,No
2021/12/11,07:50,0.155,0.142,0.222,0.217,0.223,0.120,0.077,south,1.1,No
2021/12/11,08:00,0.156,0.142,0.223,0.218,0.222,0.122,0.077,south,1.3,No
2021/12/11,08:10,0.157,0.141,0.223,0.218,0.224,0.122,0.077,southeast,1.8,No
2021/12/11,08:20,0.156,0.142,0.223,0.217,0.223,0.121,0.078,east-southeast,2.3,No
2021/12/11,08:30,0.157,0.142,0.223,0.216,0.224,0.122,0.077,east-southeast,1.3,No
2021/12/11,08:40,0.157,0.142,0.223,0.218,0.223,0.122,0.077,east-southeast,1.4,No
2021/12/11,08:50,0.157,0.142,0.223,0.217,0.224,0.122,0.077,southeast,1.6,No
2021/12/11,09:00,0.156,0.142,0.222,0.218,0.225,0.121,0.077,south-southeast,0.9,No
2021/12/11,09:10,0.157,0.142,0.223,0.217,0.224,0.121,0.078,south-southwest,1.1,No
2021/12/11,09:20,0.156,0.141,0.222,0.219,0.223,0.121,0.078,south-southeast,0.9,No
2021/12/11,09:30,0.157,0.142,0.223,0.218,0.223,0.122,0.078,south-southwest,1.3,No
2021/12/11,09:40,0.156,0.142,0.223,0.218,0.225,0.122,0.078,south-southeast,0.9,No
2021/12/11,09:50,0.157,0.141,0.222,0.219,0.223,0.121,0.078,-,CALM,No
2021/12/11,10:00,0.155,0.143,0.221,0.217,0.225,0.122,0.078,-,CALM,No
2021/12/11,10:10,0.156,0.141,0.223,0.218,0.222,0.121,0.078,-,CALM,No
2021/12/11,10:20,0.156,0.142,0.222,0.219,0.226,0.121,0.078,-,CALM,No
2021/12/11,10:30,0.157,0.142,0.221,0.219,0.222,0.122,0.078,-,CALM,No
2021/12/11,10:40,0.157,0.142,0.222,0.218,0.225,0.122,0.078,-,CALM,No
2021/12/11,10:50,0.156,0.142,0.220,0.217,0.223,0.122,0.078,-,CALM,No
2021/12/11,11:00,0.157,0.142,0.222,0.218,0.224,0.121,0.078,-,CALM,No
2021/12/11,11:10,0.155,0.142,0.221,0.217,0.223,0.122,0.077,-,CALM,No
2021/12/11,11:20,0.156,0.140,0.223,0.218,0.222,0.121,0.078,-,CALM,No
2021/12/11,11:30,0.155,0.142,0.222,0.217,0.223,0.121,0.078,-,CALM,No
2021/12/11,11:40,0.155,0.141,0.222,0.218,0.223,0.122,0.078,southeast,1.7,No
2021/12/11,11:50,0.154,0.143,0.221,0.217,0.226,0.121,0.077,southeast,2.3,No
2021/12/11,12:00,0.155,0.141,0.223,0.218,0.222,0.122,0.078,southeast,2.1,No
2021/12/11,12:10,0.156,0.142,0.221,0.217,0.224,0.122,0.078,south-southeast,1.9,No
2021/12/11,12:20,0.154,0.142,0.223,0.219,0.225,0.122,0.078,southeast,2.3,No
2021/12/11,12:30,0.156,0.143,0.222,0.217,0.225,0.122,0.078,southeast,2.1,No
2021/12/11,12:40,0.155,0.141,0.224,0.218,0.223,0.123,0.078,southeast,2.4,No
2021/12/11,12:50,0.155,0.143,0.223,0.217,0.223,0.122,0.077,southeast,2.3,No
2021/12/11,13:00,0.156,0.140,0.223,0.219,0.225,0.122,0.077,southeast,2.2,No
2021/12/11,13:10,0.155,0.142,0.222,0.216,0.225,0.122,0.078,southeast,2.3,No
2021/12/11,13:20,0.154,0.141,0.224,0.218,0.224,0.122,0.078,south-southeast,1.9,No
2021/12/11,13:30,0.155,0.142,0.224,0.218,0.226,0.122,0.078,southeast,3.1,No
2021/12/11,13:40,0.155,0.142,0.222,0.217,0.223,0.122,0.078,southeast,2.8,No
2021/12/11,13:50,0.156,0.141,0.223,0.219,0.223,0.121,0.077,east-southeast,2.9,No
2021/12/11,14:00,0.156,0.142,0.222,0.217,0.223,0.122,0.077,east-southeast,2.8,No
2021/12/11,14:10,0.156,0.142,0.223,0.219,0.224,0.121,0.078,east-southeast,1.6,No
2021/12/11,14:20,0.156,0.141,0.223,0.219,0.224,0.121,0.078,southeast,2.5,No
2021/12/11,14:30,0.156,0.142,0.222,0.218,0.225,0.121,0.077,southeast,2.8,No
2021/12/11,14:40,0.156,0.142,0.223,0.219,0.225,0.121,0.078,east-southeast,2.8,No
2021/12/11,14:50,0.157,0.142,0.223,0.219,0.225,0.121,0.078,southeast,3.0,No
2021/12/11,15:00,0.156,0.142,0.223,0.217,0.224,0.121,0.077,east-southeast,3.1,No
2021/12/11,15:10,0.156,0.142,0.223,0.219,0.225,0.121,0.078,east-southeast,3.3,No
2021/12/11,15:20,0.156,0.142,0.223,0.218,0.224,0.121,0.077,east-southeast,1.9,No
2021/12/11,15:30,0.156,0.142,0.223,0.219,0.224,0.121,0.077,southeast,1.0,No
2021/12/11,15:40,0.156,0.143,0.223,0.218,0.225,0.121,0.077,west,1.8,No
2021/12/11,15:50,0.155,0.142,0.222,0.218,0.224,0.121,0.077,west,2.4,No
2021/12/11,16:00,0.155,0.141,0.223,0.219,0.223,0.121,0.077,west,2.0,No
2021/12/11,16:10,0.157,0.142,0.222,0.219,0.224,0.121,0.077,west,5.1,No
2021/12/11,16:20,0.155,0.143,0.222,0.218,0.224,0.121,0.078,west,7.4,No
2021/12/11,16:30,0.155,0.141,0.223,0.219,0.224,0.122,0.077,west,6.8,No
2021/12/11,16:40,0.156,0.141,0.223,0.218,0.225,0.122,0.077,west,8.7,No
2021/12/11,16:50,0.155,0.142,0.223,0.219,0.223,0.121,0.078,west,6.2,No
2021/12/11,17:00,0.156,0.142,0.223,0.218,0.224,0.122,0.078,west-northwest,7.0,No
2021/12/11,17:10,0.156,0.141,0.223,0.217,0.225,0.122,0.077,west-northwest,8.5,No
2021/12/11,17:20,0.156,0.143,0.222,0.218,0.222,0.122,0.077,west-northwest,8.5,No
2021/12/11,17:30,0.157,0.142,0.224,0.218,0.223,0.121,0.077,west-northwest,7.1,No
2021/12/11,17:40,0.155,0.143,0.223,0.219,0.223,0.121,0.077,west,5.3,No
2021/12/11,17:50,0.155,0.142,0.222,0.218,0.224,0.122,0.078,west,4.8,No
2021/12/11,18:00,0.156,0.141,0.222,0.219,0.224,0.122,0.078,west,5.7,No
2021/12/11,18:10,0.156,0.142,0.224,0.219,0.224,0.122,0.077,west,6.4,No
2021/12/11,18:20,0.156,0.142,0.223,0.218,0.223,0.122,0.077,west,6.8,No
2021/12/11,18:30,0.156,0.142,0.223,0.219,0.225,0.121,0.078,west,6.8,No
2021/12/11,18:40,0.156,0.142,0.223,0.218,0.224,0.122,0.077,west,6.4,No
2021/12/11,18:50,0.155,0.142,0.223,0.218,0.222,0.121,0.076,west-northwest,5.9,No
2021/12/11,19:00,0.157,0.142,0.221,0.219,0.224,0.121,0.077,west,4.6,No
2021/12/11,19:10,0.156,0.141,0.222,0.218,0.223,0.122,0.078,west,4.7,No
2021/12/11,19:20,0.156,0.142,0.223,0.219,0.224,0.122,0.076,west-northwest,4.3,No
2021/12/11,19:30,0.156,0.142,0.224,0.218,0.224,0.122,0.078,west-northwest,3.4,No
2021/12/11,19:40,0.156,0.142,0.223,0.218,0.223,0.121,0.078,west-northwest,1.3,No
2021/12/11,19:50,0.156,0.142,0.223,0.218,0.224,0.121,0.077,west-northwest,1.4,No
2021/12/11,20:00,0.156,0.143,0.222,0.218,0.225,0.122,0.077,west-southwest,1.2,No
2021/12/11,20:10,0.156,0.142,0.223,0.219,0.224,0.122,0.077,west-northwest,6.1,No
2021/12/11,20:20,0.156,0.142,0.223,0.219,0.224,0.122,0.078,west,3.8,No
2021/12/11,20:30,0.156,0.143,0.223,0.219,0.225,0.122,0.077,west-northwest,4.6,No
2021/12/11,20:40,0.156,0.142,0.223,0.220,0.223,0.122,0.077,west-northwest,4.6,No
2021/12/11,20:50,0.156,0.142,0.223,0.217,0.223,0.121,0.077,west-northwest,4.0,No
2021/12/11,21:00,0.156,0.142,0.222,0.218,0.224,0.122,0.077,west-northwest,3.8,No
2021/12/11,21:10,0.156,0.142,0.224,0.219,0.223,0.122,0.077,west-northwest,4.1,No
2021/12/11,21:20,0.156,0.142,0.224,0.219,0.223,0.122,0.077,west-northwest,4.1,No
2021/12/11,21:30,0.156,0.142,0.224,0.219,0.224,0.121,0.077,northwest,3.4,No
2021/12/11,21:40,0.156,0.142,0.223,0.218,0.224,0.122,0.077,northwest,2.4,No
2021/12/11,21:50,0.157,0.142,0.223,0.219,0.224,0.122,0.078,northwest,3.0,No
2021/12/11,22:00,0.156,0.141,0.223,0.218,0.224,0.122,0.077,west-northwest,3.2,No
2021/12/11,22:10,0.155,0.143,0.222,0.218,0.225,0.122,0.078,south-southeast,1.6,No
2021/12/11,22:20,0.156,0.142,0.223,0.218,0.223,0.122,0.078,southeast,1.8,No
2021/12/11,22:30,0.157,0.142,0.223,0.220,0.224,0.122,0.079,southeast,2.1,No
2021/12/11,22:40,0.157,0.142,0.224,0.219,0.225,0.122,0.078,south-southeast,3.3,No
2021/12/11,22:50,0.156,0.142,0.224,0.217,0.225,0.121,0.078,south-southeast,3.1,No
2021/12/11,23:00,0.157,0.142,0.224,0.218,0.224,0.121,0.078,south-southeast,2.4,No
2021/12/11,23:10,0.157,0.142,0.222,0.219,0.224,0.122,0.078,south-southeast,2.3,No
2021/12/11,23:20,0.157,0.143,0.223,0.219,0.223,0.122,0.078,southeast,2.8,No
2021/12/11,23:30,0.156,0.142,0.223,0.218,0.224,0.121,0.078,southeast,3.2,No
2021/12/11,23:40,0.157,0.142,0.224,0.220,0.224,0.121,0.078,southeast,2.8,No
2021/12/11,23:50,0.157,0.142,0.223,0.218,0.223,0.122,0.078,southeast,3.2,No
